TimeCDT,TemperatureF,Dew PointF,Humidity,Sea Level PressureIn,VisibilityMPH,Wind Direction,Wind SpeedMPH,Gust SpeedMPH,PrecipitationIn,Events,Conditions,WindDirDegrees,DateUTC
12:14 AM,74.3,52.7,47,29.83,10.0,WNW,9.2,-,N/A,,Clear,300,2013-06-28 05:14:00
12:34 AM,73.6,53.1,49,29.83,10.0,WNW,8.1,-,N/A,,Clear,290,2013-06-28 05:34:00
12:54 AM,72.9,53.6,51,29.84,10.0,WNW,8.1,-,N/A,,Clear,290,2013-06-28 05:54:00
1:34 AM,71.6,54.0,54,29.84,10.0,WNW,8.1,-,N/A,,Clear,290,2013-06-28 06:34:00
1:54 AM,70.9,54.5,56,29.84,10.0,West,5.8,-,N/A,,Clear,280,2013-06-28 06:54:00
2:14 AM,70.7,54.9,57,29.84,10.0,West,8.1,-,N/A,,Clear,280,2013-06-28 07:14:00
2:34 AM,70.5,55.4,59,29.84,10.0,West,8.1,-,N/A,,Clear,270,2013-06-28 07:34:00
2:54 AM,69.1,56.5,64,29.84,10.0,West,5.8,-,N/A,,Clear,260,2013-06-28 07:54:00
3:14 AM,68.0,56.8,67,29.83,10.0,WSW,4.6,-,N/A,,Clear,250,2013-06-28 08:14:00
3:34 AM,67.3,56.8,69,29.83,10.0,WSW,6.9,-,N/A,,Clear,250,2013-06-28 08:34:00
3:54 AM,66.6,57.0,71,29.83,10.0,WSW,6.9,-,N/A,,Clear,250,2013-06-28 08:54:00
4:14 AM,66.6,56.7,70,29.83,10.0,WSW,6.9,-,N/A,,Mostly Cloudy,250,2013-06-28 09:14:00
4:35 AM,66.4,56.5,70,29.82,10.0,West,10.4,-,N/A,,Scattered Clouds,260,2013-06-28 09:35:00
4:54 AM,66.6,56.3,69,29.82,10.0,West,11.5,-,N/A,,Clear,260,2013-06-28 09:54:00
5:14 AM,67.1,56.3,68,29.83,10.0,West,10.4,-,N/A,,Clear,260,2013-06-28 10:14:00
5:35 AM,66.4,56.3,70,29.82,10.0,West,9.2,-,N/A,,Clear,260,2013-06-28 10:35:00
5:54 AM,66.4,56.7,71,29.81,10.0,West,10.4,-,N/A,,Clear,260,2013-06-28 10:54:00
6:14 AM,66.6,57.2,72,29.81,10.0,West,11.5,-,N/A,,Clear,270,2013-06-28 11:14:00
6:35 AM,67.3,57.2,70,29.82,10.0,West,10.4,-,N/A,,Clear,270,2013-06-28 11:35:00
6:54 AM,68.0,57.2,68,29.81,10.0,West,10.4,17.3,N/A,,Clear,270,2013-06-28 11:54:00
7:14 AM,69.1,57.4,66,29.81,10.0,West,12.7,21.9,N/A,,Clear,280,2013-06-28 12:14:00
7:35 AM,69.3,57.2,65,29.81,10.0,West,15.0,20.7,N/A,,Clear,280,2013-06-28 12:35:00
7:54 AM,69.3,56.5,64,29.81,10.0,WNW,13.8,23.0,N/A,,Clear,290,2013-06-28 12:54:00
8:14 AM,70.2,56.1,61,29.81,10.0,WNW,15.0,25.3,N/A,,Clear,290,2013-06-28 13:14:00
8:34 AM,70.7,55.9,59,29.81,10.0,WNW,12.7,24.2,N/A,,Clear,300,2013-06-28 13:34:00
8:54 AM,71.2,55.4,57,29.81,10.0,WNW,13.8,25.3,N/A,,Clear,300,2013-06-28 13:54:00
9:15 AM,71.8,54.7,55,29.81,10.0,WNW,16.1,28.8,N/A,,Scattered Clouds,300,2013-06-28 14:15:00
9:34 AM,72.0,54.9,55,29.81,10.0,WNW,19.6,26.5,N/A,,Scattered Clouds,300,2013-06-28 14:34:00
9:54 AM,73.2,56.1,55,29.81,10.0,NW,12.7,23.0,N/A,,Scattered Clouds,320,2013-06-28 14:54:00
10:15 AM,72.0,56.1,57,29.81,10.0,WNW,16.1,21.9,N/A,,Mostly Cloudy,300,2013-06-28 15:15:00
10:34 AM,72.7,56.8,57,29.81,10.0,WNW,16.1,25.3,N/A,,Overcast,290,2013-06-28 15:34:00
10:54 AM,70.7,56.3,60,29.82,10.0,WNW,15.0,26.5,N/A,,Overcast,300,2013-06-28 15:54:00
11:15 AM,71.6,57.2,60,29.82,10.0,NW,15.0,-,N/A,,Overcast,320,2013-06-28 16:15:00
11:34 AM,71.6,57.4,61,29.82,10.0,WNW,17.3,25.3,N/A,,Overcast,300,2013-06-28 16:34:00
11:54 AM,71.2,57.6,62,29.83,10.0,WNW,17.3,23.0,N/A,,Overcast,300,2013-06-28 16:54:00
12:14 PM,71.1,57.6,62,29.83,10.0,NW,15.0,21.9,N/A,,Overcast,310,2013-06-28 17:14:00
12:34 PM,72.3,58.8,62,29.83,10.0,WNW,17.3,21.9,N/A,,Overcast,300,2013-06-28 17:34:00
12:55 PM,70.9,58.1,64,29.83,10.0,NW,12.7,20.7,N/A,,Overcast,320,2013-06-28 17:55:00
1:14 PM,72.7,58.1,60,29.83,10.0,WNW,15.0,21.9,N/A,,Overcast,300,2013-06-28 18:14:00
1:34 PM,73.6,59.0,60,29.82,10.0,NW,13.8,21.9,N/A,,Overcast,320,2013-06-28 18:34:00
1:55 PM,73.4,57.7,58,29.82,10.0,NW,18.4,24.2,N/A,,Mostly Cloudy,310,2013-06-28 18:55:00
2:14 PM,75.0,59.2,58,29.81,10.0,NW,12.7,19.6,N/A,,Mostly Cloudy,320,2013-06-28 19:14:00
2:34 PM,76.1,58.3,54,29.81,10.0,WNW,17.3,26.5,N/A,,Scattered Clouds,300,2013-06-28 19:34:00
2:55 PM,76.1,57.6,53,29.81,10.0,NW,13.8,20.7,N/A,,Scattered Clouds,320,2013-06-28 19:55:00
3:14 PM,77.2,58.3,52,29.81,10.0,WNW,12.7,23.0,N/A,,Scattered Clouds,290,2013-06-28 20:14:00
3:34 PM,76.1,59.4,56,29.81,10.0,West,16.1,24.2,N/A,,Scattered Clouds,270,2013-06-28 20:34:00
3:55 PM,77.2,59.4,54,29.81,10.0,WNW,17.3,25.3,N/A,,Clear,290,2013-06-28 20:55:00
4:14 PM,77.5,59.0,53,29.81,10.0,WNW,18.4,24.2,N/A,,Scattered Clouds,290,2013-06-28 21:14:00
4:34 PM,76.8,57.4,51,29.81,10.0,WNW,17.3,26.5,N/A,,Scattered Clouds,300,2013-06-28 21:34:00
4:54 PM,77.2,56.7,49,29.81,10.0,NW,18.4,26.5,N/A,,Mostly Cloudy,310,2013-06-28 21:54:00
5:14 PM,76.1,57.4,52,29.81,10.0,NW,15.0,24.2,N/A,,Overcast,320,2013-06-28 22:14:00
5:34 PM,76.1,57.0,51,29.81,10.0,WNW,16.1,26.5,N/A,,Overcast,290,2013-06-28 22:34:00
5:54 PM,77.0,57.4,51,29.80,10.0,NW,13.8,23.0,N/A,,Mostly Cloudy,320,2013-06-28 22:54:00
6:14 PM,76.1,57.0,51,29.80,10.0,NW,12.7,24.2,N/A,,Mostly Cloudy,320,2013-06-28 23:14:00
6:34 PM,74.1,58.1,57,29.80,10.0,WNW,23.0,27.6,N/A,,Scattered Clouds,290,2013-06-28 23:34:00
6:54 PM,74.1,59.0,59,29.80,10.0,WNW,12.7,21.9,N/A,,Scattered Clouds,300,2013-06-28 23:54:00
7:14 PM,73.8,59.4,61,29.81,10.0,NW,12.7,21.9,N/A,,Scattered Clouds,310,2013-06-29 00:14:00
7:34 PM,73.0,60.3,64,29.81,10.0,WNW,20.7,28.8,N/A,,Scattered Clouds,300,2013-06-29 00:34:00
7:54 PM,67.1,60.1,78,29.83,5.0,North,11.5,17.3,0.02,Rain,Light Rain,350,2013-06-29 00:54:00
8:14 PM,67.3,61.0,80,29.82,10.0,WNW,5.8,-,N/A,,Mostly Cloudy,300,2013-06-29 01:14:00
8:34 PM,67.5,61.7,82,29.82,10.0,NW,6.9,-,N/A,,Scattered Clouds,310,2013-06-29 01:34:00
8:54 PM,67.6,61.7,81,29.83,10.0,WNW,9.2,-,N/A,,Mostly Cloudy,300,2013-06-29 01:54:00
9:14 PM,67.6,62.1,82,29.83,10.0,WNW,6.9,-,N/A,,Mostly Cloudy,300,2013-06-29 02:14:00
9:34 PM,67.5,61.9,82,29.83,10.0,NW,6.9,-,N/A,,Mostly Cloudy,320,2013-06-29 02:34:00
9:54 PM,68.0,61.7,80,29.83,10.0,NW,6.9,-,N/A,,Mostly Cloudy,320,2013-06-29 02:54:00
10:14 PM,68.2,61.7,80,29.83,7.0,NW,6.9,-,N/A,,Mostly Cloudy,310,2013-06-29 03:14:00
10:34 PM,68.7,61.2,77,29.83,10.0,NW,6.9,-,N/A,,Mostly Cloudy,310,2013-06-29 03:34:00
10:54 PM,68.2,61.0,78,29.82,10.0,NW,6.9,-,N/A,,Scattered Clouds,310,2013-06-29 03:54:00
11:15 PM,68.0,61.2,79,29.82,10.0,North,5.8,-,N/A,,Mostly Cloudy,360,2013-06-29 04:15:00
11:34 PM,66.7,59.7,78,29.82,10.0,NNE,6.9,-,N/A,,Mostly Cloudy,20,2013-06-29 04:34:00
11:54 PM,66.2,59.5,79,29.82,10.0,North,4.6,-,N/A,,Mostly Cloudy,360,2013-06-29 04:54:00